{"data":{"norad_id":37167,"epoch":"2026-05-25T04:55:12.000864Z","epoch_age_seconds":51111,"freshness":"FRESH","line1":"1 37167U 10047C   26145.20500001  .00001181  00000+0  12549-3 0  9996","line2":"2 37167  97.9766 126.5726 0019440   7.6508 352.5002 14.90856552847004","mean_motion":14.90856552,"eccentricity":0.001944,"inclination_deg":97.9766,"raan_deg":126.5726,"arg_perigee_deg":7.6508,"mean_anomaly_deg":352.5002,"bstar":0.00012549,"rev_number":84700,"period_min":96.588769594783,"perigee_km":581.70711183509,"apogee_km":608.8196925989,"semimajor_km":6973.400402217,"source":"CELESTRAK","updated_at":"2026-05-25T13:37:55.224111Z"}}